Coffeyville, KS

7:55 AM CDT on July 27, 2017 (GMT -0500)
Coffeyville Municipal

Weather History for KCFV - June, 2013

Change the Weather History Date:

Wednesday, June 12, 2013

  Actual Average Record
Temperature  
Mean Temperature 84 °F -  
Max Temperature 95 °F 81 °F 95 °F (2013)
Min Temperature 75 °F 61 °F 61 °F (2012)
Cooling Degree Days 19    
Growing Degree Days 34 (Base 50)    
Moisture  
Dew Point 71 °F    
Average Humidity 64    
Maximum Humidity 82    
Minimum Humidity 45    
Precipitation  
Precipitation 0.00 in - - ()
Sea Level Pressure  
Sea Level Pressure 29.85 in    
Wind  
Wind Speed 14 mph (SSW)    
Max Wind Speed 23 mph    
Max Gust Speed 32 mph    
Visibility 10 miles    
Events      
Averages and records for this station are not official NWS values.
T = Trace of Precipitation, MM = Missing Value Source: NWS Daily Summary

Daily Weather History Graph

Daily Weather History Graph

Search for Another Location

Airport or City:

Trip Planner

Search our weather history database for the weather conditions in past years. The results will help you decide how hot, cold, wet, or windy it might be!

Date:

Astronomy

Jun. 12, 2013 Rise Set
Actual Time 6:01 AM CDT 8:42 PM CDT
Civil Twilight 5:31 AM CDT 9:13 PM CDT
Nautical Twilight 4:52 AM CDT 9:52 PM CDT
Astronomical Twilight 4:09 AM CDT 10:35 PM CDT
Moon 9:38 AM CDT (6/12) 11:23 PM CDT (6/12)
Length of Visible Light 15h 42m
Length of Day
14h 40m
Waxing Crescent, 14% of the Moon is Illuminated
Jun 12
Waxing Crescent
Jun 16
First Quarter
Jun 23
Full
Jun 29
Last Quarter
Jul 8
New

Hourly Weather History & Observations

Time (CDT) Temp. Heat Index Dew Point Humidity Pressure Visibility Wind Dir Wind Speed Gust Speed Precip Events Conditions
12:52 AM 81.0 °F 84.4 °F 70.0 °F 69% 29.86 in 10.0 mi South 15.0 mph 20.7 mph N/A   Clear
1:52 AM 79.0 °F - 70.0 °F 74% 29.85 in 10.0 mi South 12.7 mph 20.7 mph N/A   Clear
2:52 AM 79.0 °F - 69.1 °F 72% 29.84 in 10.0 mi South 10.4 mph - N/A   Clear
3:52 AM 77.0 °F - 70.0 °F 79% 29.83 in 10.0 mi South 12.7 mph - N/A   Clear
4:52 AM 77.0 °F - 70.0 °F 79% 29.85 in 10.0 mi South 12.7 mph 21.9 mph N/A   Clear
5:52 AM 75.9 °F - 70.0 °F 82% 29.86 in 10.0 mi South 12.7 mph - N/A   Clear
6:52 AM 77.0 °F - 71.1 °F 82% 29.87 in 10.0 mi South 16.1 mph 21.9 mph N/A   Clear
7:17 AM 78.8 °F - 71.6 °F 78% 29.90 in 10.0 mi South 12.7 mph 20.7 mph N/A   Partly Cloudy
7:52 AM 79.0 °F - 71.1 °F 77% 29.88 in 10.0 mi South 19.6 mph 26.5 mph N/A   Clear
8:52 AM 82.0 °F 86.3 °F 71.1 °F 69% 29.86 in 10.0 mi South 18.4 mph 31.1 mph N/A   Clear
9:52 AM 84.9 °F 89.4 °F 70.0 °F 61% 29.87 in 10.0 mi SSW 18.4 mph 28.8 mph N/A   Clear
10:52 AM 87.1 °F 92.0 °F 70.0 °F 57% 29.85 in 10.0 mi SSW 23.0 mph 31.1 mph N/A   Clear
11:52 AM 89.1 °F 95.0 °F 71.1 °F 55% 29.84 in 10.0 mi SSW 17.3 mph 28.8 mph N/A   Clear
12:52 PM 91.0 °F 96.6 °F 70.0 °F 50% 29.84 in 10.0 mi SW 20.7 mph 29.9 mph N/A   Clear
1:52 PM 93.0 °F 97.9 °F 69.1 °F 45% 29.84 in 10.0 mi SW 20.7 mph 32.2 mph N/A   Clear
2:52 PM 93.0 °F 99.0 °F 70.0 °F 47% 29.84 in 10.0 mi SW 16.1 mph 28.8 mph N/A   Clear
3:52 PM 93.9 °F 100.3 °F 70.0 °F 46% 29.83 in 10.0 mi WSW 16.1 mph 25.3 mph N/A   Clear
4:52 PM 93.9 °F 100.8 °F 71.1 °F 47% 29.83 in 10.0 mi SW 15.0 mph - N/A   Clear
5:52 PM 93.0 °F 100.7 °F 72.0 °F 50% 29.82 in 10.0 mi SSW 13.8 mph 18.4 mph N/A   Clear
6:52 PM 91.0 °F 97.6 °F 71.1 °F 52% 29.82 in 10.0 mi SW 12.7 mph 20.7 mph N/A   Clear
7:52 PM 89.1 °F 95.0 °F 71.1 °F 55% 29.83 in 10.0 mi SSW 13.8 mph - N/A   Clear
8:52 PM 87.1 °F 92.8 °F 71.1 °F 59% 29.84 in 10.0 mi SSW 11.5 mph - N/A   Clear
9:52 PM 82.9 °F 88.0 °F 72.0 °F 69% 29.87 in 10.0 mi Calm Calm - N/A   Clear
10:52 PM 80.1 °F 83.8 °F 72.0 °F 76% 29.89 in 10.0 mi SSW 3.5 mph - N/A   Clear
11:52 PM 80.1 °F 83.8 °F 72.0 °F 76% 29.90 in 10.0 mi Calm Calm - N/A   Clear